STARLINK-4014 (52684 NORAD) Tracking and Keplerian Element Data

This shows tracking and keplerian element data for the satellite.

Feedback or suggestion? Click here.




ElementValue
Catalog52684
NameSTARLINK-4014
Epoch Orbit130
Epoch Day228.91667824
Epoch Year2022
RAAN223.5124
Inclination53.2148
Eccentricity0.0002187
Argument of Perigee51.7833
Mean Anonmoly244.119
Mean Motion15.08823337
Decay Rate0.00041417
L11 52684U 22053AE 22228.91667824 .00041417 00000+0 26063-2 0 9991
L22 52684 53.2148 223.5124 0002187 51.7833 244.1190 15.08823337 1309

Live tracking and technical data element details for STARLINK-4014 (NORAD 52684). STARLINK-4014 can be tracked NOW for your location showing map with azimuth and elevation plus other details from your city location.

Track the satellite on the map from your city or location and see movement details for azimuth, elevation, latitude, longitude, range, height, and movement on the map or in text.







IsCatalogInMostPopularTable: catalog: 52684, numindb: 7
Update: records affected: 1



GetName: 52684 STARLINK-4014

Hit Count: updated at: Thu, 18 Aug 2022 19:46:34 GMT